Weather History for Casper, WY

Change the Weather History Date:

Tuesday, February 26, 2013

  Actual Average Record
Temperature  
Mean Temperature 19 °F 30 °F  
Max Temperature 29 °F 41 °F 63 °F (1950)
Min Temperature 9 °F 18 °F -13 °F (2002)
Degree Days  
Heating Degree Days 46 35  
Month to date heating degree days 1008 1000  
Since 1 July heating degree days 4959 5377  
Cooling Degree Days 0 0  
Month to date cooling degree days 0 0  
Year to date cooling degree days 0 0  
Moisture  
Dew Point 20 °F    
Average Humidity 73    
Maximum Humidity 96    
Minimum Humidity 50    
Precipitation  
Precipitation 0.09 in 0.03 in 0.47 in (1987)
Month to date precipitation 0.50 0.53  
Year to date precipitation 0.77 1.04  
Snow  
Snow 1.60 in 0.40 in - ()
Month to date snowfall 9.5 9.1  
Since 1 July snowfall 32.7 48.7  
Snow Depth 2.00 in    
Sea Level Pressure  
Sea Level Pressure 29.99 in    
Wind  
Wind Speed 8 mph (WNW)    
Max Wind Speed 24 mph    
Max Gust Speed 30 mph    
Visibility 3 miles    
Events Fog , Snow    
T = Trace of Precipitation, MM = Missing Value Source: NWS Daily Summary

Daily Weather History Graph

Daily Weather History Graph

Search for Another Location

Airport:

Trip Planner

Search our weather history database for the weather conditions in past years. The results will help you decide how hot, cold, wet, or windy it might be!

Date:

Astronomy

Feb. 26, 2013 Rise Set
Actual Time 6:46 AM MST 5:51 PM MST
Civil Twilight 6:17 AM MST 6:20 PM MST
Nautical Twilight 5:44 AM MST 6:53 PM MST
Astronomical Twilight 5:12 AM MST 7:26 PM MST
Moon 7:15 PM MST (2/26) 6:47 AM MST (2/26)
Length of Visible Light 12h 02m
Length of Day
11h 05m
Full, 99% of the Moon is Illuminated
Feb 26
Full
Mar 4
Last Quarter
Mar 11
New
Mar 19
First Quarter
Mar 27
Full

Hourly Weather History & Observations

Time (MST) Temp. Windchill Dew Point Humidity Pressure Visibility Wind Dir Wind Speed Gust Speed Precip Events Conditions
12:31 AM 26.6 °F 14.3 °F 14.0 °F 59% 29.81 in 10.0 mi SW 16.1 mph - N/A   Overcast
12:53 AM 26.1 °F 13.1 °F 18.0 °F 71% 29.90 in 4.0 mi SSW 17.3 mph - 0.00 in Snow Light Snow
1:08 AM 24.8 °F 12.9 °F 19.4 °F 80% 29.81 in 2.5 mi SW 13.8 mph - 0.00 in Snow Light Snow
1:40 AM 24.8 °F 13.4 °F 19.4 °F 80% 29.80 in 2.5 mi SW 12.7 mph - 0.00 in Snow Light Snow
1:50 AM 24.8 °F 15.3 °F 19.4 °F 80% 29.79 in 5.0 mi SW 9.2 mph - 0.01 in Snow Light Snow
1:53 AM 25.0 °F 16.3 °F 19.9 °F 81% 29.89 in 6.0 mi SW 8.1 mph - 0.01 in Snow Light Snow
2:19 AM 24.8 °F 14.6 °F 19.4 °F 80% 29.81 in 10.0 mi SW 10.4 mph 21.9 mph 0.00 in   Overcast
2:53 AM 25.0 °F 14.2 °F 19.9 °F 81% 29.90 in 2.0 mi South 11.5 mph - 0.00 in Snow Light Snow
3:04 AM 24.8 °F 14.0 °F 19.4 °F 80% 29.82 in 2.5 mi SSW 11.5 mph - 0.00 in Snow Light Snow
3:12 AM 24.8 °F 14.6 °F 19.4 °F 80% 29.82 in 4.0 mi SSW 10.4 mph - 0.00 in Snow Light Snow
3:30 AM 24.8 °F 16.1 °F 19.4 °F 80% 29.82 in 2.5 mi SSW 8.1 mph - 0.00 in Snow Light Snow
3:49 AM 24.8 °F 17.9 °F 19.4 °F 80% 29.82 in - SSW 5.8 mph - 0.00 in Snow Light Snow
3:53 AM 24.1 °F 17.0 °F 19.9 °F 84% 29.91 in - SW 5.8 mph - 0.00 in Snow Light Snow
4:23 AM 24.8 °F 16.9 °F 19.4 °F 80% 29.83 in - SW 6.9 mph - 0.01 in Snow Snow
4:48 AM 24.8 °F 16.9 °F 21.2 °F 86% 29.84 in 0.5 mi SW 6.9 mph - 0.02 in Fog , Snow Snow
4:53 AM 24.1 °F 16.0 °F 21.0 °F 88% 29.94 in 0.5 mi SW 6.9 mph - 0.02 in Fog , Snow Snow
4:57 AM 24.8 °F 16.9 °F 21.2 °F 86% 29.84 in 1.0 mi SW 6.9 mph - 0.00 in Snow Light Snow
5:53 AM 23.0 °F 13.9 °F 21.0 °F 92% 29.97 in 1.5 mi SW 8.1 mph - 0.02 in Snow Light Snow
6:53 AM 23.0 °F - 21.0 °F 92% 29.98 in 1.5 mi Calm Calm - 0.01 in Snow Light Snow
7:53 AM 25.0 °F - 21.0 °F 85% 30.00 in 1.2 mi Calm Calm - 0.00 in Snow Light Snow
8:00 AM 24.8 °F 19.1 °F 21.2 °F 86% 29.89 in - North 4.6 mph - 0.00 in Snow Light Snow
8:08 AM 24.8 °F 15.3 °F 21.2 °F 86% 29.90 in 1.2 mi NNE 9.2 mph - N/A Snow Light Snow
8:24 AM 24.8 °F 17.9 °F 21.2 °F 86% 29.90 in 1.2 mi North 5.8 mph - 0.01 in Snow Light Snow
8:53 AM 25.0 °F 14.8 °F 21.0 °F 85% 30.01 in 1.2 mi North 10.4 mph - 0.01 in   Overcast
9:00 AM 24.8 °F 14.0 °F 21.2 °F 86% 29.91 in 6.0 mi North 11.5 mph - 0.00 in Snow Light Snow
9:53 AM 26.1 °F 15.0 °F 21.0 °F 81% 30.02 in 3.0 mi North 12.7 mph - 0.00 in Snow Light Snow
10:00 AM 26.6 °F 15.7 °F 21.2 °F 80% 29.92 in 2.0 mi North 12.7 mph - 0.00 in Snow Light Snow
10:46 AM 26.6 °F 15.2 °F 21.2 °F 80% 29.94 in 5.0 mi North 13.8 mph - 0.00 in Snow Light Snow
10:53 AM 27.0 °F 15.2 °F 21.0 °F 78% 30.03 in 5.0 mi North 15.0 mph - 0.00 in Snow Light Snow
11:27 AM 26.6 °F 16.2 °F 21.2 °F 80% 29.95 in 2.5 mi North 11.5 mph - 0.00 in Snow Light Snow
11:53 AM 27.0 °F 17.3 °F 21.9 °F 81% 30.04 in 2.0 mi North 10.4 mph - 0.00 in Snow Light Snow
11:57 AM 26.6 °F 17.5 °F 21.2 °F 80% 29.96 in 0.8 mi NNW 9.2 mph - 0.00 in Snow Light Snow
12:25 PM 28.4 °F 19.1 °F 21.2 °F 74% 29.96 in 1.5 mi NNW 10.4 mph - 0.00 in Snow Light Snow
12:53 PM 28.0 °F 18.1 °F 21.0 °F 75% 30.05 in 1.5 mi North 11.5 mph - 0.01 in Snow Light Snow
1:13 PM 26.6 °F 17.5 °F 21.2 °F 80% 29.96 in 0.8 mi North 9.2 mph - 0.00 in Snow Light Snow
1:32 PM 26.6 °F 17.5 °F 21.2 °F 80% 29.97 in 0.5 mi North 9.2 mph - 0.01 in Snow Snow
1:42 PM 28.4 °F 19.1 °F 21.2 °F 74% 29.97 in 2.0 mi North 10.4 mph - 0.01 in Snow Light Snow
1:53 PM 27.0 °F 18.0 °F 21.9 °F 81% 30.08 in 2.0 mi North 9.2 mph - 0.01 in Snow Light Snow
1:59 PM 28.4 °F 18.5 °F 21.2 °F 74% 29.98 in 3.0 mi North 11.5 mph - 0.00 in Snow Light Snow
2:53 PM 28.0 °F 20.8 °F 21.9 °F 78% 30.09 in 3.0 mi NNW 6.9 mph - 0.00 in   Haze
3:53 PM 28.0 °F 19.3 °F 19.9 °F 72% 30.12 in 6.0 mi North 9.2 mph - N/A   Haze
4:53 PM 26.1 °F 16.8 °F 19.9 °F 78% 30.16 in 4.0 mi North 9.2 mph - 0.00 in Snow Light Snow
5:07 PM 24.8 °F 12.9 °F 19.4 °F 80% 30.05 in 4.0 mi North 13.8 mph - 0.00 in   Haze
5:53 PM 24.1 °F 16.0 °F 21.0 °F 88% 30.19 in 4.0 mi NW 6.9 mph - 0.00 in   Overcast
6:53 PM 21.0 °F 12.4 °F 18.0 °F 88% 30.22 in 10.0 mi West 6.9 mph - N/A   Overcast
7:53 PM 19.0 °F 11.1 °F 16.0 °F 88% 30.25 in 10.0 mi West 5.8 mph - N/A   Overcast
8:53 PM 14.0 °F - 12.0 °F 92% 30.28 in 10.0 mi Calm Calm - N/A   Partly Cloudy
9:53 PM 18.0 °F 7.7 °F 14.0 °F 84% 30.28 in - WSW 8.1 mph - N/A   Overcast
10:53 PM 16.0 °F 5.3 °F 12.0 °F 84% 30.30 in - West 8.1 mph - N/A   Overcast
11:53 PM 15.1 °F 4.2 °F 10.9 °F 84% 30.30 in - WSW 8.1 mph - N/A   Overcast